Wind_Speed
3 4 4 5 6 6 7 7 6 6 5 5 4 3 2 1 0 1 3 5 6 8 10 11 12 14 15 16 16 15 14 14 14 13 12 11 10 9 8 8 8 8 8
1 1 2 2 3 4 4 4 4 5 4 4 4 3 3 2 1 1 1 3 5 6 8 9 11 12 14 15 16 15 15 16 15 14 13 12 11 10 9 8 9 8 8
3 2 1 1 1 1 1 2 2 2 3 3 3 3 3 2 2 2 1 2 3 4 6 7 9 10 11 12 13 14 15 15 15 15 14 13 12 11 10 9 9 8 8
4 4 4 3 3 2 2 2 1 1 1 1 2 2 2 2 2 2 2 2 2 3 4 6 7 8 9 9 10 10 11 12 13 14 14 13 12 11 10 9 8 8 7
5 6 6 6 6 5 5 4 4 3 3 2 2 2 1 2 2 2 2 2 2 2 3 4 5 6 7 7 8 8 8 9 10 11 11 11 11 11 10 9 7 7 6
6 7 8 8 8 8 8 7 7 6 6 5 4 4 3 3 2 2 2 2 2 2 3 3 4 5 6 6 6 6 6 7 8 9 9 8 9 9 9 8 6 6 5
8 9 9 10 10 10 10 10 10 9 9 8 7 7 6 5 5 4 3 3 3 3 3 3 4 5 5 5 5 6 6 6 6 7 7 7 6 6 7 7 5 4 3
9 10 10 10 11 12 12 12 12 12 12 11 10 9 9 8 7 6 5 5 4 4 4 3 4 4 5 5 5 5 5 6 6 6 5 5 5 4 4 4 3 2 1
10 11 12 12 13 14 14 15 15 15 15 14 13 12 11 10 10 9 8 7 6 5 5 4 4 4 5 5 4 4 5 6 6 5 5 4 4 4 3 4 3 2 2
13 13 14 15 16 16 17 17 18 18 17 17 16 15 14 13 13 12 11 10 9 8 7 6 6 5 5 4 4 4 5 6 6 5 5 5 5 4 4 4 4 3 3
15 16 17 17 17 18 19 20 20 20 20 20 20 19 18 16 16 15 14 13 12 11 10 9 8 7 6 6 5 5 5 6 6 5 5 6 6 5 5 4 4 4 3
19 20 20 21 21 21 21 21 22 22 22 23 22 22 21 20 19 18 17 16 15 14 12 11 10 10 9 7 7 6 6 6 7 6 6 7 6 6 6 5 5 4 4
26 25 26 25 25 25 24 24 23 23 24 24 25 24 24 23 23 21 20 19 18 17 15 14 13 12 11 10 9 8 7 8 7 7 7 7 7 7 7 7 5 5 4
30 31 31 31 30 30 29 28 27 26 26 26 26 26 26 25 25 24 24 23 22 20 19 17 16 14 13 12 11 10 10 9 9 8 8 8 7 7 7 7 7 6 5
34 34 35 35 35 35 34 33 31 30 30 29 27 27 29 28 27 26 26 26 25 24 22 20 19 17 16 15 14 13 12 12 11 10 9 9 9 8 8 8 8 7 6
36 37 38 39 39 38 38 37 37 36 34 33 32 30 30 30 29 28 27 27 27 27 26 25 22 20 19 17 16 15 14 14 14 13 12 11 10 10 9 9 8 8 8
37 38 39 40 40 40 40 40 40 39 38 37 35 34 32 31 30 28 27 26 26 27 28 27 25 23 21 20 18 17 16 16 16 16 15 13 12 11 11 10 9 9 9
37 38 38 39 39 40 40 40 41 40 39 38 37 37 35 33 32 30 29 28 27 26 28 29 28 26 24 23 21 20 19 18 18 18 17 16 14 13 13 12 11 10 10
36 36 35 35 36 37 38 39 40 40 39 39 38 38 37 36 34 32 30 29 28 27 27 28 28 29 28 27 25 23 22 21 20 20 19 18 17 16 15 14 13 13 12
33 33 34 34 34 35 36 37 38 39 39 38 38 37 37 37 36 34 32 31 30 29 29 28 27 29 30 29 29 27 24 24 22 22 21 21 20 19 18 17 16 15 15
29 29 30 31 33 33 34 35 36 37 37 38 37 37 37 37 37 36 35 34 33 31 30 29 29 29 30 30 30 29 28 27 25 24 23 23 22 21 20 19 18 17 17
26 27 27 28 29 29 30 31 33 34 35 35 36 37 37 37 37 37 37 36 35 33 31 30 29 29 30 31 31 31 30 29 28 27 26 26 25 24 22 22 21 20 19
23 23 23 24 24 25 26 27 28 29 31 32 33 34 35 36 36 36 36 36 35 35 35 33 31 30 30 30 30 30 31 31 31 30 29 28 27 26 25 24 23 23 22
19 19 19 20 20 21 22 23 25 26 28 29 30 31 32 32 33 34 34 35 36 36 35 34 33 31 32 33 32 30 31 32 33 33 31 30 29 28 27 27 26 25 24
16 16 16 17 17 18 19 19 20 21 23 25 26 28 29 30 31 31 32 34 36 36 36 35 35 33 33 33 33 32 32 32 32 33 33 33 32 31 30 29 28 27 26
16 15 15 16 16 16 15 16 16 17 18 20 22 24 26 28 29 30 31 33 35 36 36 36 37 35 35 34 34 33 33 33 33 32 33 34 34 34 32 31 29 29 28
Wind_Direction
66 67 72 75 74 72 69 65 61 57 54 52 53 53 55 62 104 220 228 225 224 225 225 227 229 231 231 233 238 243 246 247 249 251 255 262 269 280 291 304 314 323 329
352 36 56 65 71 71 68 62 58 53 49 46 46 43 38 30 17 326 260 240 233 232 231 233 234 233 234 237 241 246 249 249 249 252 255 258 266 272 280 293 303 311 318
282 283 291 311 343 32 51 47 41 38 37 35 34 34 30 21 8 356 320 271 246 239 237 237 239 238 238 241 244 247 250 252 250 251 252 256 263 265 273 283 290 300 309
277 275 272 273 276 279 280 283 297 314 331 353 6 15 19 15 8 0 342 308 274 257 247 240 239 240 243 245 247 249 252 252 250 250 252 255 256 258 266 275 282 291 300
281 279 275 273 270 269 268 267 268 271 274 276 283 296 318 341 350 350 345 330 304 277 259 248 244 245 246 250 251 253 256 254 250 252 253 254 250 253 258 266 274 284 293
284 280 277 275 272 269 267 265 265 264 264 264 265 267 272 280 294 312 323 322 316 303 280 265 259 257 256 255 255 254 256 258 253 252 249 246 244 249 252 256 265 277 287
285 280 276 274 273 270 268 266 264 263 262 261 261 263 265 267 270 277 287 296 304 305 296 283 272 265 262 258 256 255 258 257 252 246 240 237 240 243 244 247 256 266 273
287 281 275 273 272 270 268 266 262 259 259 259 259 259 261 263 263 265 269 274 281 289 290 288 284 273 267 264 260 257 252 250 247 242 231 228 230 231 231 231 234 229 197
290 283 277 271 267 265 263 262 260 258 256 256 256 257 258 259 261 263 265 267 269 271 276 279 281 279 273 268 264 261 253 244 241 236 224 217 216 213 209 202 195 178 162
288 287 283 276 270 265 261 259 257 255 255 255 255 255 256 257 258 260 262 264 265 265 264 267 270 274 275 271 266 259 251 243 243 236 224 214 207 204 198 188 186 182 172
279 280 278 276 273 270 266 261 259 255 253 253 254 254 254 255 256 258 259 261 263 263 261 259 261 266 269 268 265 257 248 243 241 237 224 214 211 208 204 197 195 194 182
276 274 274 273 274 273 272 268 265 258 255 253 251 252 253 253 253 255 256 258 259 260 259 257 256 258 261 263 262 258 250 244 242 238 228 221 216 214 212 208 207 203 193
276 273 272 271 269 269 269 269 268 266 261 258 255 254 253 253 253 253 253 255 255 256 257 257 255 253 255 255 256 256 251 247 245 236 233 228 222 220 217 213 211 208 205
276 274 272 269 268 268 267 266 265 265 266 263 258 256 253 254 255 254 252 253 253 252 253 255 254 251 250 249 249 251 251 247 245 240 235 231 228 226 223 218 216 215 213
275 274 273 271 270 267 266 265 266 265 266 264 263 260 256 254 252 253 255 253 252 250 250 251 251 250 249 246 244 245 248 247 247 244 240 238 234 231 230 226 222 219 219
275 273 272 272 271 270 267 266 264 264 264 265 263 263 262 258 256 255 257 254 251 249 248 248 247 246 247 246 243 242 244 247 248 247 244 240 237 236 235 232 229 226 224
276 274 273 272 271 271 270 268 266 264 263 262 262 263 263 262 262 260 259 258 254 251 248 246 246 245 245 246 244 242 244 246 246 246 244 241 239 238 238 237 236 233 232
279 277 276 275 273 272 271 270 268 266 264 262 260 261 260 261 262 262 261 260 257 254 251 248 247 245 244 246 246 244 242 242 243 244 244 242 240 239 240 241 241 239 239
281 280 279 277 275 274 272 271 269 268 265 262 259 258 258 259 258 259 259 257 257 256 253 250 247 245 246 245 245 245 242 240 241 243 245 243 241 240 241 243 244 245 244
282 280 279 278 277 275 273 272 270 269 266 263 260 257 256 256 255 255 255 255 256 256 254 250 247 245 245 246 245 243 242 240 239 241 244 243 241 241 242 242 244 245 246
285 283 282 280 278 276 274 272 270 268 266 263 260 256 254 253 253 253 252 252 252 254 253 250 248 246 245 246 246 243 241 239 239 241 242 243 243 242 243 243 244 246 247
291 289 288 285 282 279 277 274 271 269 267 263 259 255 253 252 250 250 250 249 248 248 248 249 247 245 245 246 245 243 241 238 239 240 241 241 242 244 244 245 246 248 249
301 297 294 291 287 284 281 278 274 271 268 264 260 256 253 251 249 248 247 245 244 244 243 245 245 244 243 242 242 242 240 238 238 239 239 239 241 243 246 247 247 248 249
311 306 302 298 295 292 288 282 278 274 270 266 261 256 253 250 247 245 244 243 241 240 240 241 242 241 240 240 240 241 239 238 238 238 237 238 239 242 245 245 247 248 248
327 322 316 311 306 303 297 293 286 279 273 268 262 257 253 249 246 244 242 241 240 239 238 237 238 238 237 237 237 239 239 239 238 239 238 238 240 240 242 243 245 246 248
345 342 336 329 321 316 309 304 299 289 279 271 264 258 253 250 246 242 241 240 239 238 236 234 235 236 235 234 235 236 237 238 238 239 238 239 239 239 240 240 242 246 248
Height
5919 5918 5918 5917 5916 5916 5916 5915 5915 5915 5915 5914 5914 5914 5914 5913 5913 5913 5913 5913 5913 5913 5913 5913 5913 5913 5913 5913 5913 5914 5914 5914 5914 5915 5915 5915 5915 5915 5914 5914 5913 5912 5911
5920 5919 5919 5918 5917 5917 5917 5916 5916 5916 5916 5915 5915 5914 5914 5914 5914 5913 5913 5913 5912 5912 5912 5912 5912 5912 5912 5912 5912 5912 5913 5913 5913 5913 5914 5914 5914 5914 5913 5913 5912 5912 5911
5920 5919 5919 5919 5918 5918 5917 5917 5917 5916 5916 5916 5916 5915 5915 5914 5914 5913 5913 5913 5912 5912 5912 5911 5911 5911 5911 5911 5911 5911 5911 5911 5911 5912 5912 5912 5912 5912 5912 5912 5912 5911 5910
5920 5919 5919 5919 5918 5918 5918 5917 5917 5917 5917 5916 5916 5916 5915 5914 5914 5913 5913 5912 5912 5911 5911 5911 5910 5910 5910 5910 5910 5910 5910 5909 5909 5910 5910 5911 5911 5911 5911 5911 5911 5910 5909
5919 5919 5919 5919 5918 5918 5918 5918 5917 5917 5917 5916 5916 5916 5915 5915 5914 5913 5913 5912 5912 5911 5911 5910 5910 5910 5909 5909 5909 5909 5909 5908 5908 5908 5908 5909 5909 5909 5910 5910 5910 5909 5909
5919 5918 5918 5918 5917 5917 5917 5917 5917 5916 5916 5916 5915 5915 5915 5914 5914 5913 5913 5912 5911 5911 5910 5910 5909 5909 5909 5909 5908 5908 5908 5907 5907 5907 5907 5907 5908 5908 5908 5909 5909 5909 5908
5917 5916 5916 5916 5916 5916 5916 5915 5915 5915 5915 5914 5914 5914 5914 5913 5913 5913 5912 5912 5911 5910 5910 5909 5909 5908 5908 5908 5908 5907 5907 5907 5906 5906 5906 5906 5907 5907 5907 5908 5908 5908 5907
5915 5914 5914 5914 5914 5913 5913 5913 5913 5913 5913 5912 5912 5912 5912 5912 5912 5911 5911 5911 5910 5910 5909 5909 5908 5908 5907 5907 5907 5906 5906 5906 5906 5905 5906 5906 5906 5906 5906 5907 5907 5907 5907
5912 5911 5911 5911 5910 5910 5910 5910 5910 5910 5910 5910 5910 5910 5910 5910 5910 5910 5909 5909 5909 5909 5909 5908 5908 5907 5907 5907 5906 5906 5906 5905 5905 5905 5905 5906 5906 5906 5906 5906 5907 5907 5907
5910 5909 5908 5907 5906 5906 5906 5906 5906 5906 5906 5906 5907 5907 5907 5907 5907 5907 5907 5907 5907 5907 5907 5907 5907 5906 5906 5906 5906 5905 5905 5905 5904 5905 5905 5905 5905 5906 5906 5906 5907 5907 5907
5908 5906 5905 5904 5903 5902 5901 5901 5901 5901 5902 5902 5903 5903 5904 5904 5904 5904 5905 5905 5905 5905 5905 5905 5905 5905 5905 5905 5905 5904 5904 5904 5904 5904 5904 5905 5905 5905 5906 5906 5906 5907 5907
5904 5903 5902 5900 5899 5898 5897 5897 5897 5897 5897 5898 5898 5899 5900 5900 5900 5901 5901 5902 5902 5902 5903 5903 5903 5903 5903 5903 5903 5903 5903 5903 5903 5904 5904 5904 5904 5905 5905 5906 5906 5906 5907
5899 5898 5897 5896 5894 5893 5893 5892 5892 5892 5892 5892 5893 5894 5895 5895 5896 5896 5897 5897 5898 5899 5899 5900 5900 5901 5901 5901 5902 5902 5902 5902 5902 5903 5903 5903 5904 5904 5904 5905 5906 5906 5906
5892 5891 5889 5889 5888 5888 5888 5887 5886 5887 5886 5887 5888 5888 5889 5890 5890 5891 5892 5893 5894 5895 5895 5896 5897 5898 5898 5899 5899 5900 5900 5900 5901 5901 5902 5902 5903 5903 5904 5904 5905 5905 5906
5884 5883 5881 5881 5880 5880 5880 5880 5880 5881 5881 5881 5881 5882 5883 5884 5884 5885 5886 5887 5888 5889 5891 5892 5893 5894 5895 5896 5897 5897 5898 5898 5899 5899 5900 5901 5901 5902 5903 5903 5904 5904 5905
5875 5874 5873 5872 5871 5871 5871 5872 5872 5873 5874 5875 5875 5875 5876 5877 5877 5879 5879 5880 5882 5883 5885 5886 5888 5889 5891 5892 5893 5894 5895 5896 5896 5897 5898 5899 5900 5901 5901 5902 5903 5903 5904
5866 5864 5863 5862 5861 5861 5861 5861 5863 5864 5865 5867 5867 5868 5869 5870 5871 5872 5873 5874 5875 5877 5878 5880 5882 5884 5886 5888 5889 5890 5892 5893 5893 5895 5896 5897 5898 5899 5900 5900 5901 5902 5903
5856 5855 5853 5852 5852 5851 5851 5851 5851 5853 5854 5857 5858 5860 5861 5862 5864 5865 5867 5868 5869 5870 5872 5874 5876 5879 5880 5882 5884 5886 5888 5889 5890 5891 5893 5894 5895 5896 5897 5898 5899 5900 5901
5847 5845 5844 5843 5841 5841 5840 5840 5840 5841 5843 5845 5848 5850 5852 5853 5855 5857 5859 5861 5862 5864 5866 5868 5870 5872 5874 5877 5879 5881 5883 5885 5886 5888 5889 5890 5892 5893 5895 5896 5897 5898 5899
5839 5837 5835 5833 5832 5831 5830 5830 5829 5830 5831 5833 5836 5839 5841 5843 5846 5848 5851 5853 5855 5857 5859 5861 5863 5865 5868 5870 5872 5875 5877 5880 5881 5883 5884 5886 5888 5889 5891 5892 5894 5895 5896
5830 5828 5826 5824 5823 5821 5820 5819 5819 5819 5820 5822 5824 5827 5830 5833 5836 5839 5842 5845 5847 5849 5851 5853 5855 5858 5860 5863 5865 5868 5871 5873 5876 5878 5880 5881 5883 5885 5887 5888 5890 5891 5892
5823 5820 5818 5816 5814 5813 5811 5810 5809 5809 5809 5810 5812 5815 5818 5822 5825 5829 5832 5835 5838 5841 5843 5845 5848 5851 5853 5855 5858 5860 5863 5867 5869 5872 5874 5876 5878 5880 5882 5884 5885 5887 5888
5816 5814 5811 5809 5807 5805 5803 5802 5800 5800 5800 5800 5802 5804 5807 5810 5814 5818 5821 5824 5828 5831 5834 5837 5840 5842 5845 5848 5851 5853 5856 5859 5862 5865 5868 5870 5872 5874 5876 5878 5880 5882 5883
5811 5809 5806 5803 5801 5798 5796 5794 5793 5792 5791 5792 5792 5794 5796 5800 5803 5807 5810 5814 5817 5821 5825 5828 5831 5834 5837 5840 5843 5846 5849 5852 5855 5858 5861 5864 5866 5868 5870 5873 5874 5876 5878
5808 5805 5802 5799 5796 5793 5790 5788 5786 5785 5784 5784 5784 5785 5787 5790 5793 5796 5800 5803 5807 5811 5815 5818 5822 5825 5828 5831 5834 5837 5841 5844 5847 5850 5853 5856 5859 5861 5864 5866 5868 5870 5872
5806 5802 5798 5795 5792 5789 5786 5783 5781 5780 5778 5777 5777 5778 5779 5781 5784 5787 5790 5793 5797 5801 5805 5809 5813 5816 5819 5823 5826 5829 5832 5836 5839 5842 5845 5848 5851 5854 5857 5859 5862 5864 5865